[Date Prev][Date Next][Thread Prev][Thread Next] - [Date Index][Thread Index][Author Index]

2 Line ISS Keps 5-3



ISS
1 25544U 98067A   02123.20960648  .00039847  00000-0  51211-3 0  3867
2 25544  51.6373 279.0192 0007507  29.2260 317.9050 15.58658322197004


----
Via the sarex mailing list at AMSAT.ORG courtesy of AMSAT-NA.
To unsubscribe, send "unsubscribe sarex" to Majordomo@amsat.org



AMSAT Top AMSAT Home